Regional Weather Roundup
Issued by NWS

Home | Current Version | Previous Version | Text Only | Print | Product List | Glossary Off
Versions: 1 2 3 4 5 6 7 8 9 10 11 12 13 14 15 16 17 18 19 20 21 22 23 24 25 26 27 28 29 30 31 32 33 34 35 36 37 38 39 40 41 42 43 44 45 46 47 48 49 50

000
ASUS43 KMKX 280159
RWRWI

WISCONSIN REGIONAL WEATHER ROUNDUP
NATIONAL WEATHER SERVICE MILWAUKEE/SULLIVAN WI
800 PM CST TUE JAN 27 2015

NOTE: "FAIR" INDICATES FEW OR NO CLOUDS BELOW 12,000 FEET WITH NO
SIGNIFICANT WEATHER AND/OR OBSTRUCTIONS TO VISIBILITY.

WIZ001-002-006>008-014>016-023>028-280300-
NORTHWEST WISCONSIN

CITY           SKY/WX    TMP DP  RH WIND       PRES   REMARKS
SUPERIOR ARPT  CLOUDY    29  24  82 SE3       30.16F
ASHLAND        CLOUDY    28  21  75 S5        30.17S WCI  23
HAYWARD        CLOUDY    27  21  78 S6        30.15S WCI  20
SIREN          CLOUDY    29  24  79 S8        30.15S WCI  21
CUMBERLAND     MOCLDY    27  21  80 SE6       30.15S WCI  20
RICE LAKE      MOCLDY    27  21  78 SE5       30.18S WCI  22
CHETEK         MOCLDY    27  21  80 E5        30.17S WCI  21
LADYSMITH      CLOUDY    26  22  84 S3        30.18S
EAU CLAIRE     MOCLDY    27  20  75 SE8       30.17F WCI  19
MENOMONIE      MOCLDY    28  22  78 E5        30.18S WCI  22
NEW RICHMOND   CLOUDY    28  22  79 SE7       30.16S WCI  21
OSCEOLA        CLOUDY    30  24  81 SE8       30.18R WCI  22
$$

WIZ003>005-009-010-017-018-280300-
NORTH CENTRAL WISCONSIN

CITY           SKY/WX    TMP DP  RH WIND       PRES   REMARKS
MANITOWISH WTR CLOUDY    23  19  85 S3        30.13S
ARBOR VITAE    CLOUDY    24  20  84 S5        30.14S WCI  18
WOODRUFF       CLOUDY    24  20  84 S5        30.14S WCI  18
RHINELANDER    CLOUDY    22  17  81 CALM      30.15F
EAGLE RIVER    CLOUDY    23  18  81 CALM      30.14F
LAND O LAKES   CLOUDY    23  19  85 CALM      30.14F
PHILLIPS       CLOUDY    24  20  85 S6        30.15R WCI  16
TOMAHAWK       CLOUDY    23  19  83 CALM      30.16F
MEDFORD        CLOUDY    23  19  86 S5        30.16R WCI  17
MERRILL        CLOUDY    24  19  81 CALM      30.17S
$$

WIZ029-030-035-036-043>047-280300-
CENTRAL WISCONSIN

CITY           SKY/WX    TMP DP  RH WIND       PRES   REMARKS
WAUSAU         CLOUDY    24  19  81 SE5       30.17S WCI  18
MOSINEE        CLOUDY    23  21  93 SE5       30.19S WCI  17
MARSHFIELD     CLOUDY    25  21  85 S6        30.18R WCI  18
STEVENS POINT  CLOUDY    22  19  88 SE3       30.19F
WAUPACA        CLOUDY    27  20  75 E3        30.22F
WAUTOMA        NOT AVBL
WISC RAPIDS    CLOUDY    25  21  85 SE3       30.21R
CAMP DOUGLAS   NOT AVBL
$$

WIZ011>013-019>022-031-037>040-048>050-280300-
NORTHEAST WISCONSIN

CITY           SKY/WX    TMP DP  RH WIND       PRES   REMARKS
ANTIGO         CLOUDY    22  18  86 S3        30.17S
SHAWANO        CLOUDY    27  17  68 CALM      30.23F
OCONTO         PTCLDY    11  10  95 MISG      30.24F
STURGEON BAY   PTCLDY    14  10  85 CALM      30.24F
GREEN BAY      MOCLDY    16  13  88 CALM      30.23F
MANITOWOC      NOT AVBL
APPLETON       CLOUDY    25  16  68 VRB5      30.21F WCI  19
CLINTONVILLE   CLOUDY    27  18  69 CALM      30.22F
OSHKOSH        CLOUDY    25  17  72 CALM      30.22F
$$

WIZ032>034-041-042-053>061-280300-
SOUTHWEST WISCONSIN

CITY           SKY/WX    TMP DP  RH WIND       PRES   REMARKS
LA CROSSE      CLOUDY    29  21  72 SE6       30.20F WCI  23
SPARTA         CLOUDY    26  22  82 CALM      30.22R
VIROQUA        CLOUDY    25  22  87 S6        30.18S WCI  18
BOSCOBEL       CLOUDY    28  21  75 CALM      30.22S
PRAIRIE DU CHI CLOUDY    28  20  71 SE5       30.22F WCI  23
PLATTEVILLE    CLOUDY    28  24  86 CALM      30.22R
$$

WIZ056-057-062-063-064-067-068-280300-
SOUTH CENTRAL WISCONSIN

CITY           SKY/WX    TMP DP  RH WIND       PRES   REMARKS
REEDSBURG      CLOUDY    26  24  94 CALM      30.20S FOG
BARABOO/DELLS  CLOUDY    26  24  93 CALM      30.20S FOG
LONE ROCK      NOT AVBL
MINERAL POINT  CLOUDY    28  27  93 CALM      30.20R FOG
MADISON        CLOUDY    26  20  77 E5        30.20F WCI  20
MIDDLETON      CLOUDY    28  24  85 E6        30.20F WCI  22
WATERTOWN      CLOUDY    26  19  75 E3        30.21F
MONROE         CLOUDY    28  28 100 CALM      30.19F FOG
JANESVILLE     CLOUDY    30  25  80 E5        30.21F WCI  25
$$

WIZ051-052-058>065-066-070>072-280300-
SOUTHEAST WISCONSIN

CITY           SKY/WX    TMP DP  RH WIND       PRES   REMARKS
MILWAUKEE      MOCLDY    27  17  66 N3        30.24F
WAUKESHA       CLOUDY    23  18  80 E3        30.24S
MILWAUKEE/TIMM CLOUDY    27  18  69 CALM      30.24F
RACINE         CLOUDY    27  18  69 NE7       30.25F WCI  19
BURLINGTON     PTCLDY    17  14  87 CALM      30.23F
KENOSHA        CLEAR     20  15  81 CALM      30.23F
FOND DU LAC    CLOUDY    25  18  74 CALM      30.21F
SHEBOYGAN      CLOUDY    26  17  68 NE5       30.24F WCI  20
WEST BEND      CLOUDY    27  19  74 E3        30.23S
JUNEAU         CLOUDY    25  19  77 CALM      30.22F
$$

LSZ147-162-280300-
LAKE SUPERIOR

STATION/POSITION TIME  TEMP    WIND        PRES    WAVE
                       AIR SEA DIR/SP/G            HT/PER
                 (UTC) (F)     (DEG/KT/KT) (MB)    (FT/S)
DEVILS ISLAND    0100   29     170/  6/  8 1022.3F
PORT WING        0140   29     180/  3/  5 1021.3F
SAXON HARBOR     0100   29        CALM     1021.7F
$$

LMZ867-665-643>646-280300-
LAKE MICHIGAN

STATION/POSITION TIME  TEMP    WIND        PRES    WAVE
                       AIR SEA DIR/SP/G            HT/PER
                 (UTC) (F)     (DEG/KT/KT) (MB)    (FT/S)
NORTHPORT PIER   0100   19      CALM  /  2 1024.4S
SISTER BAY       0113   16        CALM       N/A
KEWAUNEE LAKESHO 0100   26     340/  3/  5 1023.6R
SHEBOYGAN LAKESH 0100   27      40/  4/  5 1025.6R
PORT WASHINGTON  0140   27      40/  7/  8 1025.1S
MILWAUKEE LAKESH 0100   28     350/  4/  6   N/A
KENOSHA   LAKESH 0100   28      20/  9/ 10 1024.4R
$$

TC  - TEMPERATURE IN CELSIUS
VSB - VISIBILITY IN STATUTE MILES
WCI - WIND CHILL INDEX
HX  - HEAT INDEX



USA.gov is the U.S. government's official web portal to all federal, state and local government web resources and services.